UPS507 RKSI-RCTP

Flight info

Callsign UPS507
Flight time 2h 24m
Altitude 34000
Route BOPTA3C BOPTA Z51 BEDES Y711 MUGUS Y742 SALMI B576 BAKER BAKER1A
Aircraft B763/H-SDE3FGHIM3RWXY/LB1

Departure

Time 2026-05-05 14:35
Airport Incheon International Airport (RKSI)

Arrival

Time 2026-05-05 16:59
Airport Taiwan Taoyuan International Airport (RCTP)
Time Latitude Longitude Altitude Speed Heading
2026-05-05 14:01 37.46419 126.46497 31 ft 0 kts 144°
2026-05-05 14:22 37.46420 126.46497 31 ft 0 kts 144°
2026-05-05 14:22 37.46424 126.46493 31 ft 2 kts 144°
2026-05-05 14:22 37.46436 126.46482 31 ft 2 kts 144°
2026-05-05 14:23 37.46449 126.46471 31 ft 2 kts 144°
2026-05-05 14:23 37.46461 126.46460 31 ft 2 kts 144°
2026-05-05 14:23 37.46473 126.46449 31 ft 2 kts 155°
2026-05-05 14:23 37.46487 126.46446 31 ft 2 kts 186°
2026-05-05 14:24 37.46502 126.46451 31 ft 2 kts 213°
2026-05-05 14:24 37.46510 126.46459 31 ft 0 kts 233°
2026-05-05 14:24 37.46512 126.46463 31 ft 0 kts 234°
2026-05-05 14:27 37.46511 126.46461 31 ft 2 kts 234°
2026-05-05 14:27 37.46483 126.46413 31 ft 10 kts 233°
2026-05-05 14:27 37.46434 126.46329 31 ft 12 kts 233°
2026-05-05 14:28 37.46378 126.46254 31 ft 11 kts 224°
2026-05-05 14:28 37.46337 126.46192 31 ft 4 kts 270°
2026-05-05 14:28 37.46368 126.46129 31 ft 12 kts 317°
2026-05-05 14:28 37.46463 126.46043 31 ft 21 kts 323°
2026-05-05 14:29 37.46603 126.45916 31 ft 26 kts 323°
2026-05-05 14:29 37.46748 126.45785 31 ft 24 kts 326°
2026-05-05 14:29 37.46887 126.45664 31 ft 23 kts 324°
2026-05-05 14:29 37.47019 126.45546 31 ft 22 kts 324°
2026-05-05 14:30 37.47145 126.45435 31 ft 21 kts 324°
2026-05-05 14:30 37.47267 126.45325 31 ft 21 kts 324°
2026-05-05 14:30 37.47393 126.45214 31 ft 24 kts 324°
2026-05-05 14:30 37.47536 126.45086 31 ft 25 kts 326°
2026-05-05 14:31 37.47678 126.44959 31 ft 24 kts 324°
2026-05-05 14:31 37.47813 126.44839 31 ft 23 kts 324°
2026-05-05 14:31 37.47943 126.44723 31 ft 22 kts 324°
2026-05-05 14:31 37.48068 126.44613 31 ft 21 kts 324°
2026-05-05 14:32 37.48188 126.44506 31 ft 20 kts 324°
2026-05-05 14:32 37.48303 126.44404 31 ft 19 kts 324°
2026-05-05 14:32 37.48413 126.44305 31 ft 16 kts 324°
2026-05-05 14:32 37.48479 126.44229 31 ft 11 kts 286°
2026-05-05 14:33 37.48457 126.44156 31 ft 8 kts 235°
2026-05-05 14:33 37.48416 126.44082 31 ft 12 kts 234°
2026-05-05 14:33 37.48349 126.44056 31 ft 10 kts 142°
2026-05-05 14:33 37.48284 126.44112 31 ft 19 kts 144°
2026-05-05 14:34 37.48050 126.44320 31 ft 66 kts 144°
2026-05-05 14:34 37.47536 126.44778 31 ft 113 kts 144°
2026-05-05 14:34 37.46766 126.45464 32 ft 154 kts 145°
2026-05-05 14:34 37.45811 126.46306 210 ft 177 kts 143°
2026-05-05 14:35 37.44957 126.47379 915 ft 171 kts 136°
2026-05-05 14:35 37.44154 126.48473 1463 ft 173 kts 135°
2026-05-05 14:35 37.43322 126.49666 1807 ft 186 kts 135°
2026-05-05 14:35 37.42446 126.50919 2149 ft 201 kts 135°
2026-05-05 14:36 37.41458 126.52335 2433 ft 223 kts 135°
2026-05-05 14:36 37.40402 126.53857 2852 ft 240 kts 134°
2026-05-05 14:36 37.39276 126.55479 3319 ft 256 kts 134°
2026-05-05 14:36 37.38080 126.57201 3906 ft 267 kts 134°
2026-05-05 14:37 37.36659 126.58645 4595 ft 267 kts 158°
2026-05-05 14:37 37.34922 126.59441 5320 ft 270 kts 163°
2026-05-05 14:37 37.33132 126.60240 6068 ft 275 kts 162°
2026-05-05 14:37 37.31325 126.61037 6809 ft 280 kts 162°
2026-05-05 14:38 37.29489 126.61840 7582 ft 282 kts 162°
2026-05-05 14:38 37.27605 126.62617 8320 ft 284 kts 170°
2026-05-05 14:38 37.25652 126.62772 9009 ft 285 kts 182°
2026-05-05 14:38 37.23669 126.62746 9748 ft 287 kts 181°
2026-05-05 14:39 37.21663 126.62723 10394 ft 293 kts 181°
2026-05-05 14:39 37.19557 126.62685 10740 ft 311 kts 181°
2026-05-05 14:39 37.17337 126.62639 11096 ft 328 kts 181°
2026-05-05 14:39 37.15015 126.62588 11543 ft 342 kts 181°
2026-05-05 14:40 37.12600 126.62533 12274 ft 346 kts 181°
2026-05-05 14:40 37.10207 126.62502 12947 ft 351 kts 180°
2026-05-05 14:40 37.07735 126.62470 13620 ft 356 kts 179°
2026-05-05 14:40 37.05239 126.62441 14289 ft 361 kts 179°
2026-05-05 14:41 37.02717 126.62411 14979 ft 364 kts 179°
2026-05-05 14:41 37.00185 126.62380 15625 ft 368 kts 179°
2026-05-05 14:41 36.97639 126.62360 16269 ft 371 kts 178°
2026-05-05 14:41 36.95052 126.62398 16863 ft 375 kts 178°
2026-05-05 14:42 36.92409 126.62426 17485 ft 379 kts 178°
2026-05-05 14:42 36.89761 126.62458 18020 ft 384 kts 178°
2026-05-05 14:42 36.87079 126.62414 18615 ft 387 kts 182°
2026-05-05 14:42 36.84385 126.62243 19192 ft 390 kts 181°
2026-05-05 14:43 36.81663 126.62088 19721 ft 394 kts 182°
2026-05-05 14:43 36.78937 126.61932 20271 ft 397 kts 182°
2026-05-05 14:43 36.76165 126.61774 20782 ft 401 kts 182°
2026-05-05 14:43 36.73369 126.61833 21255 ft 404 kts 171°
2026-05-05 14:44 36.70630 126.62630 21776 ft 406 kts 163°
2026-05-05 14:44 36.67900 126.63528 22265 ft 409 kts 164°
2026-05-05 14:44 36.65128 126.64450 22734 ft 413 kts 164°
2026-05-05 14:44 36.62370 126.65368 23187 ft 416 kts 165°
2026-05-05 14:45 36.59573 126.66303 23690 ft 419 kts 165°
2026-05-05 14:45 36.56762 126.67242 24180 ft 421 kts 165°
2026-05-05 14:45 36.53907 126.68198 24649 ft 427 kts 165°
2026-05-05 14:45 36.51032 126.69159 25238 ft 429 kts 165°
2026-05-05 14:46 36.48152 126.70122 25770 ft 433 kts 165°
2026-05-05 14:46 36.45202 126.71108 26256 ft 437 kts 165°
2026-05-05 14:46 36.42267 126.72088 26763 ft 440 kts 165°
2026-05-05 14:46 36.39305 126.73076 27230 ft 445 kts 165°
2026-05-05 14:47 36.36310 126.74084 27718 ft 448 kts 165°
2026-05-05 14:47 36.33298 126.75101 28175 ft 451 kts 165°
2026-05-05 14:47 36.30268 126.76124 28689 ft 453 kts 166°
2026-05-05 14:47 36.27211 126.77155 29149 ft 456 kts 166°
2026-05-05 14:48 36.24171 126.78178 29524 ft 460 kts 166°
2026-05-05 14:48 36.21063 126.79223 30018 ft 462 kts 166°
2026-05-05 14:48 36.17963 126.80237 30484 ft 462 kts 169°
2026-05-05 14:48 36.14784 126.80797 30891 ft 462 kts 179°
2026-05-05 14:49 36.11615 126.80713 31451 ft 457 kts 187°
2026-05-05 14:49 36.08420 126.80411 32020 ft 454 kts 187°
2026-05-05 14:49 36.05330 126.80110 32619 ft 449 kts 187°
2026-05-05 14:49 36.02232 126.79795 33129 ft 447 kts 187°
2026-05-05 14:50 35.99140 126.79472 33593 ft 445 kts 187°
2026-05-05 14:50 35.96035 126.79144 34038 ft 443 kts 188°
2026-05-05 14:50 35.89969 126.78495 34104 ft 437 kts 188°
2026-05-05 14:51 35.83892 126.77837 34107 ft 437 kts 188°
2026-05-05 14:51 35.77811 126.77181 34102 ft 439 kts 188°
2026-05-05 14:52 35.71735 126.76524 34105 ft 439 kts 188°
2026-05-05 14:52 35.65659 126.75869 34105 ft 436 kts 188°
2026-05-05 14:53 35.59637 126.75220 34104 ft 436 kts 188°
2026-05-05 14:53 35.53600 126.74570 34105 ft 436 kts 188°
2026-05-05 14:54 35.47563 126.73923 34101 ft 435 kts 188°
2026-05-05 14:54 35.41546 126.73279 34107 ft 433 kts 189°
2026-05-05 14:55 35.35519 126.72633 34106 ft 434 kts 189°
2026-05-05 14:55 35.29486 126.71989 34101 ft 434 kts 189°
2026-05-05 14:56 35.23525 126.71354 34106 ft 432 kts 189°
2026-05-05 14:56 35.17503 126.70712 34102 ft 434 kts 189°
2026-05-05 14:57 35.11541 126.70080 34111 ft 430 kts 189°
2026-05-05 14:57 35.05593 126.69447 34101 ft 429 kts 189°
2026-05-05 14:58 34.99633 126.68814 34111 ft 431 kts 189°
2026-05-05 14:58 34.93665 126.68183 34115 ft 428 kts 189°
2026-05-05 14:59 34.87732 126.67555 34117 ft 427 kts 189°
2026-05-05 14:59 34.81816 126.66930 34112 ft 428 kts 189°
2026-05-05 15:00 34.77835 126.66511 34115 ft 427 kts 189°
2026-05-05 15:00 34.69976 126.65682 34112 ft 426 kts 190°
2026-05-05 15:01 34.64062 126.65060 34113 ft 427 kts 190°
2026-05-05 15:01 34.58133 126.64438 34115 ft 425 kts 190°
2026-05-05 15:02 34.52262 126.63823 34110 ft 423 kts 190°
2026-05-05 15:02 34.46404 126.63209 34112 ft 423 kts 190°
2026-05-05 15:03 34.40541 126.62595 34114 ft 422 kts 190°
2026-05-05 15:03 34.34674 126.61983 34126 ft 423 kts 190°
2026-05-05 15:04 34.28811 126.61372 34121 ft 422 kts 191°
2026-05-05 15:04 34.23004 126.60768 34120 ft 419 kts 191°
2026-05-05 15:05 34.14267 126.59856 34119 ft 421 kts 191°
2026-05-05 15:06 34.08438 126.59249 34116 ft 419 kts 191°
2026-05-05 15:06 34.02654 126.58648 34119 ft 418 kts 191°
2026-05-05 15:07 33.96840 126.58044 34109 ft 419 kts 191°
2026-05-05 15:07 33.91079 126.57446 34106 ft 419 kts 191°
2026-05-05 15:08 33.85259 126.56778 34104 ft 416 kts 196°
2026-05-05 15:08 33.79828 126.54793 34115 ft 406 kts 205°
2026-05-05 15:09 33.74500 126.52529 34102 ft 406 kts 205°
2026-05-05 15:09 33.69207 126.50254 34108 ft 404 kts 205°
2026-05-05 15:10 33.63900 126.47963 34110 ft 404 kts 205°
2026-05-05 15:10 33.58616 126.45681 34109 ft 405 kts 205°
2026-05-05 15:11 33.53338 126.43404 34110 ft 402 kts 205°
2026-05-05 15:11 33.48071 126.41132 34116 ft 403 kts 205°
2026-05-05 15:12 33.42779 126.38853 34106 ft 404 kts 205°
2026-05-05 15:12 33.37491 126.36579 34103 ft 401 kts 205°
2026-05-05 15:13 33.32277 126.34341 34117 ft 399 kts 205°
2026-05-05 15:13 33.27018 126.32084 34118 ft 400 kts 205°
2026-05-05 15:14 33.21810 126.29852 34119 ft 399 kts 205°
2026-05-05 15:14 33.16555 126.27605 34092 ft 398 kts 205°
2026-05-05 15:14 33.13956 126.26493 34225 ft 397 kts 205°
2026-05-05 15:15 33.11340 126.25375 34101 ft 400 kts 205°
2026-05-05 15:15 33.06155 126.23163 34107 ft 395 kts 205°
2026-05-05 15:16 33.01002 126.20966 34113 ft 394 kts 205°
2026-05-05 15:16 32.95814 126.18739 34112 ft 395 kts 205°
2026-05-05 15:17 32.90669 126.16530 34112 ft 395 kts 205°
2026-05-05 15:17 32.85508 126.14317 34117 ft 394 kts 205°
2026-05-05 15:18 32.80362 126.12115 34118 ft 392 kts 205°
2026-05-05 15:18 32.75200 126.09907 34119 ft 392 kts 205°
2026-05-05 15:19 32.70108 126.07732 34119 ft 390 kts 206°
2026-05-05 15:19 32.64999 126.05552 34117 ft 388 kts 206°
2026-05-05 15:20 32.59941 126.03396 34116 ft 388 kts 206°
2026-05-05 15:20 32.54833 126.01222 34113 ft 387 kts 205°
2026-05-05 15:21 32.49790 125.99079 34110 ft 384 kts 206°
2026-05-05 15:21 32.44756 125.96943 34169 ft 385 kts 206°
2026-05-05 15:22 32.39673 125.94788 34116 ft 388 kts 205°
2026-05-05 15:22 32.34636 125.92660 34112 ft 384 kts 206°
2026-05-05 15:23 32.29592 125.90527 34106 ft 384 kts 206°
2026-05-05 15:23 32.24565 125.88406 34107 ft 384 kts 206°
2026-05-05 15:24 32.19541 125.86289 34101 ft 383 kts 206°
2026-05-05 15:24 32.14502 125.84165 34100 ft 383 kts 206°
2026-05-05 15:25 32.09495 125.82061 34107 ft 382 kts 206°
2026-05-05 15:25 32.04507 125.79964 34098 ft 380 kts 206°
2026-05-05 15:26 31.99535 125.77877 34104 ft 381 kts 206°
2026-05-05 15:26 31.94537 125.75775 34094 ft 378 kts 206°
2026-05-05 15:27 31.89597 125.73698 34103 ft 379 kts 206°
2026-05-05 15:27 31.84609 125.71604 34108 ft 379 kts 206°
2026-05-05 15:28 31.79659 125.69529 34106 ft 378 kts 206°
2026-05-05 15:28 31.74713 125.67457 34113 ft 379 kts 206°
2026-05-05 15:29 31.69749 125.65380 34106 ft 376 kts 206°
2026-05-05 15:29 31.64853 125.63331 34101 ft 374 kts 206°
2026-05-05 15:30 31.59940 125.61275 34100 ft 374 kts 206°
2026-05-05 15:30 31.55043 125.59229 34104 ft 374 kts 206°
2026-05-05 15:31 31.50161 125.57187 34093 ft 370 kts 206°
2026-05-05 15:31 31.45306 125.55151 34102 ft 371 kts 206°
2026-05-05 15:32 31.40438 125.53115 34092 ft 370 kts 206°
2026-05-05 15:32 31.35609 125.51096 34093 ft 369 kts 207°
2026-05-05 15:33 31.30769 125.49076 34092 ft 368 kts 206°
2026-05-05 15:33 31.25973 125.47077 34090 ft 366 kts 207°
2026-05-05 15:34 31.21139 125.45061 34092 ft 369 kts 207°
2026-05-05 15:34 31.16328 125.43059 34086 ft 366 kts 206°
2026-05-05 15:35 31.11538 125.41068 34085 ft 364 kts 207°
2026-05-05 15:35 31.06778 125.39092 34083 ft 363 kts 207°
2026-05-05 15:36 31.01991 125.37105 34082 ft 363 kts 207°
2026-05-05 15:36 30.97279 125.35154 34081 ft 360 kts 206°
2026-05-05 15:37 30.92508 125.33176 34093 ft 363 kts 206°
2026-05-05 15:37 30.87755 125.31213 34115 ft 362 kts 206°
2026-05-05 15:38 30.83030 125.29262 34104 ft 361 kts 206°
2026-05-05 15:38 30.78269 125.27296 34105 ft 362 kts 206°
2026-05-05 15:39 30.73518 125.25337 34109 ft 363 kts 206°
2026-05-05 15:39 30.68770 125.23383 34099 ft 361 kts 206°
2026-05-05 15:40 30.64034 125.21433 34098 ft 360 kts 205°
2026-05-05 15:40 30.59301 125.19490 34098 ft 360 kts 206°
2026-05-05 15:41 30.54573 125.17548 34094 ft 360 kts 206°
2026-05-05 15:41 30.49834 125.15604 34094 ft 362 kts 206°
2026-05-05 15:42 30.45102 125.13666 34090 ft 361 kts 206°
2026-05-05 15:42 30.40361 125.11725 34092 ft 359 kts 206°
2026-05-05 15:43 30.35653 125.09798 34099 ft 361 kts 206°
2026-05-05 15:43 30.30905 125.07859 34086 ft 359 kts 206°
2026-05-05 15:44 30.26218 125.05946 34091 ft 359 kts 206°
2026-05-05 15:44 30.21466 125.04006 34094 ft 360 kts 206°
2026-05-05 15:45 30.16789 125.02103 34085 ft 356 kts 205°
2026-05-05 15:45 30.12139 125.00210 34089 ft 355 kts 206°
2026-05-05 15:46 30.07441 124.98299 34080 ft 356 kts 205°
2026-05-05 15:46 30.02767 124.96402 34073 ft 355 kts 206°
2026-05-05 15:47 29.98147 124.94485 34074 ft 355 kts 206°
2026-05-05 15:47 29.93468 124.92482 34073 ft 358 kts 206°
2026-05-05 15:48 29.88790 124.90485 34069 ft 358 kts 206°
2026-05-05 15:48 29.84123 124.88494 34069 ft 360 kts 206°
2026-05-05 15:49 29.79430 124.86494 34066 ft 357 kts 206°
2026-05-05 15:49 29.74754 124.84503 34075 ft 358 kts 206°
2026-05-05 15:50 29.70071 124.82513 34063 ft 360 kts 206°
2026-05-05 15:50 29.65364 124.80512 34055 ft 360 kts 206°
2026-05-05 15:51 29.60652 124.78513 34061 ft 361 kts 206°
2026-05-05 15:51 29.55929 124.76510 34060 ft 360 kts 206°
2026-05-05 15:52 29.51256 124.74530 34057 ft 360 kts 206°
2026-05-05 15:52 29.46542 124.72536 34053 ft 361 kts 206°
2026-05-05 15:53 29.41813 124.70536 34060 ft 361 kts 206°
2026-05-05 15:53 29.37118 124.68553 34055 ft 360 kts 205°
2026-05-05 15:54 29.32400 124.66563 34048 ft 362 kts 206°
2026-05-05 15:54 29.27650 124.64561 34049 ft 361 kts 205°
2026-05-05 15:55 29.22933 124.62575 34046 ft 361 kts 205°
2026-05-05 15:55 29.18214 124.60590 34040 ft 362 kts 206°
2026-05-05 15:56 29.13494 124.58606 34038 ft 362 kts 205°
2026-05-05 15:56 29.08760 124.56618 34039 ft 364 kts 205°
2026-05-05 15:57 29.04025 124.54633 34034 ft 361 kts 206°
2026-05-05 15:57 28.99275 124.52642 34036 ft 363 kts 205°
2026-05-05 15:58 28.94664 124.50368 34042 ft 358 kts 216°
2026-05-05 15:58 28.90590 124.47157 34026 ft 356 kts 217°
2026-05-05 15:59 28.86537 124.43932 34047 ft 357 kts 218°
2026-05-05 15:59 28.82477 124.40686 34045 ft 357 kts 217°
2026-05-05 16:00 28.78395 124.37416 34043 ft 357 kts 217°
2026-05-05 16:00 28.74334 124.34164 34056 ft 357 kts 217°
2026-05-05 16:01 28.70277 124.30917 34054 ft 357 kts 217°
2026-05-05 16:01 28.66182 124.27640 34060 ft 359 kts 217°
2026-05-05 16:02 28.62108 124.24386 34057 ft 357 kts 217°
2026-05-05 16:02 28.58022 124.21123 34056 ft 359 kts 217°
2026-05-05 16:03 28.53932 124.17860 34057 ft 360 kts 217°
2026-05-05 16:03 28.49832 124.14592 34053 ft 359 kts 217°
2026-05-05 16:04 28.45737 124.11333 34051 ft 359 kts 217°
2026-05-05 16:04 28.41655 124.08084 34048 ft 360 kts 217°
2026-05-05 16:05 28.37534 124.04811 34049 ft 361 kts 217°
2026-05-05 16:05 28.33388 124.01519 34048 ft 363 kts 217°
2026-05-05 16:06 28.29299 123.98229 34046 ft 362 kts 217°
2026-05-05 16:06 28.25224 123.94908 34040 ft 361 kts 218°
2026-05-05 16:07 28.21134 123.91579 34047 ft 363 kts 217°
2026-05-05 16:07 28.17007 123.88223 34042 ft 363 kts 217°
2026-05-05 16:08 28.12908 123.84893 34044 ft 362 kts 217°
2026-05-05 16:08 28.08782 123.81544 34040 ft 364 kts 217°
2026-05-05 16:09 28.04684 123.78222 34041 ft 365 kts 218°
2026-05-05 16:09 28.00537 123.74863 34037 ft 364 kts 218°
2026-05-05 16:10 27.96423 123.71533 34035 ft 366 kts 218°
2026-05-05 16:10 27.92280 123.68174 34031 ft 367 kts 217°
2026-05-05 16:11 27.88115 123.64782 34052 ft 366 kts 218°
2026-05-05 16:12 27.79848 123.58061 34042 ft 368 kts 218°
2026-05-05 16:13 27.69385 123.49572 34034 ft 370 kts 218°
2026-05-05 16:13 27.65208 123.46189 34033 ft 369 kts 218°
2026-05-05 16:14 27.56844 123.39425 34027 ft 372 kts 218°
2026-05-05 16:15 27.48402 123.32610 34045 ft 374 kts 218°
2026-05-05 16:16 27.39930 123.25785 34041 ft 374 kts 218°
2026-05-05 16:17 27.33575 123.20673 34035 ft 375 kts 218°
2026-05-05 16:18 27.27201 123.15554 34036 ft 377 kts 218°
2026-05-05 16:19 27.20807 123.10426 34033 ft 376 kts 218°
2026-05-05 16:19 27.14403 123.05299 34027 ft 374 kts 218°
2026-05-05 16:20 27.05905 122.98508 34022 ft 375 kts 219°
2026-05-05 16:22 26.95206 122.89996 34023 ft 378 kts 219°
2026-05-05 16:23 26.86649 122.83203 34029 ft 376 kts 218°
2026-05-05 16:23 26.80220 122.78108 34023 ft 379 kts 218°
2026-05-05 16:24 26.75904 122.74690 34018 ft 379 kts 218°
2026-05-05 16:25 26.69407 122.69554 34012 ft 381 kts 218°
2026-05-05 16:25 26.62934 122.64441 34009 ft 382 kts 218°
2026-05-05 16:26 26.54212 122.57563 34010 ft 382 kts 218°
2026-05-05 16:27 26.49856 122.54131 34001 ft 383 kts 218°
2026-05-05 16:27 26.45491 122.50696 34000 ft 384 kts 219°
2026-05-05 16:28 26.41120 122.47260 33995 ft 385 kts 218°
2026-05-05 16:28 26.36764 122.43841 33993 ft 385 kts 219°
2026-05-05 16:29 26.32384 122.40403 33993 ft 386 kts 219°
2026-05-05 16:29 26.27961 122.36937 33990 ft 385 kts 219°
2026-05-05 16:30 26.23661 122.33570 33686 ft 376 kts 218°
2026-05-05 16:30 26.21525 122.31898 33327 ft 375 kts 218°
2026-05-05 16:30 26.19400 122.30234 32935 ft 375 kts 219°
2026-05-05 16:31 26.17256 122.28557 32523 ft 377 kts 219°
2026-05-05 16:31 26.15108 122.26877 32099 ft 380 kts 218°
2026-05-05 16:31 26.12942 122.25194 31671 ft 382 kts 218°
2026-05-05 16:31 26.10722 122.23495 31221 ft 384 kts 218°
2026-05-05 16:32 26.08543 122.21825 30784 ft 385 kts 218°
2026-05-05 16:32 26.06323 122.20126 30337 ft 385 kts 218°
2026-05-05 16:32 26.04124 122.18440 29889 ft 384 kts 218°
2026-05-05 16:32 26.01929 122.16762 29443 ft 382 kts 218°
2026-05-05 16:33 25.99774 122.15113 28994 ft 377 kts 218°
2026-05-05 16:33 25.97622 122.13468 28545 ft 373 kts 218°
2026-05-05 16:33 25.95498 122.11845 28097 ft 369 kts 218°
2026-05-05 16:33 25.93379 122.10226 27673 ft 367 kts 218°
2026-05-05 16:34 25.91273 122.08617 27250 ft 365 kts 218°
2026-05-05 16:34 25.89194 122.07030 26834 ft 363 kts 218°
2026-05-05 16:34 25.87124 122.05450 26433 ft 361 kts 218°
2026-05-05 16:34 25.85058 122.03874 26031 ft 359 kts 218°
2026-05-05 16:35 25.83001 122.02306 25627 ft 357 kts 218°
2026-05-05 16:35 25.80969 122.00758 25221 ft 355 kts 218°
2026-05-05 16:35 25.78925 121.99200 24819 ft 354 kts 218°
2026-05-05 16:35 25.76899 121.97659 24419 ft 353 kts 218°
2026-05-05 16:36 25.74878 121.96119 24014 ft 351 kts 218°
2026-05-05 16:36 25.72876 121.94597 23621 ft 347 kts 218°
2026-05-05 16:36 25.70898 121.93076 23230 ft 346 kts 218°
2026-05-05 16:36 25.68932 121.91560 22829 ft 345 kts 219°
2026-05-05 16:37 25.66973 121.90051 22439 ft 341 kts 218°
2026-05-05 16:37 25.65090 121.88494 22032 ft 337 kts 226°
2026-05-05 16:37 25.63649 121.86498 21678 ft 333 kts 240°
2026-05-05 16:37 25.62484 121.84274 21327 ft 334 kts 240°
2026-05-05 16:38 25.61321 121.82062 20948 ft 333 kts 240°
2026-05-05 16:38 25.60170 121.79848 20567 ft 331 kts 240°
2026-05-05 16:38 25.59023 121.77631 20186 ft 330 kts 240°
2026-05-05 16:38 25.57887 121.75430 19802 ft 328 kts 240°
2026-05-05 16:39 25.56769 121.73260 19429 ft 327 kts 240°
2026-05-05 16:39 25.55639 121.71064 19038 ft 325 kts 240°
2026-05-05 16:39 25.54524 121.68896 18653 ft 325 kts 240°
2026-05-05 16:39 25.53410 121.66728 18275 ft 325 kts 240°
2026-05-05 16:40 25.52293 121.64559 17892 ft 325 kts 240°
2026-05-05 16:40 25.51172 121.62378 17515 ft 324 kts 240°
2026-05-05 16:40 25.50065 121.60230 17135 ft 320 kts 240°
2026-05-05 16:40 25.48955 121.58102 16761 ft 321 kts 238°
2026-05-05 16:41 25.47582 121.56185 16420 ft 318 kts 230°
2026-05-05 16:41 25.46129 121.54306 16050 ft 319 kts 231°
2026-05-05 16:41 25.44690 121.52447 15681 ft 317 kts 231°
2026-05-05 16:41 25.43261 121.50608 15307 ft 317 kts 231°
2026-05-05 16:42 25.41837 121.48779 14935 ft 314 kts 232°
2026-05-05 16:42 25.40420 121.46963 14580 ft 312 kts 232°
2026-05-05 16:42 25.38998 121.45141 14217 ft 312 kts 232°
2026-05-05 16:42 25.37569 121.43314 13873 ft 310 kts 232°
2026-05-05 16:43 25.36155 121.41505 13549 ft 310 kts 232°
2026-05-05 16:43 25.34762 121.39726 13218 ft 309 kts 232°
2026-05-05 16:43 25.33359 121.37934 12877 ft 308 kts 232°
2026-05-05 16:43 25.31962 121.36150 12539 ft 307 kts 232°
2026-05-05 16:44 25.30563 121.34365 12212 ft 305 kts 231°
2026-05-05 16:44 25.29158 121.32573 11884 ft 306 kts 232°
2026-05-05 16:44 25.27757 121.30786 11550 ft 306 kts 231°
2026-05-05 16:44 25.26365 121.29014 11213 ft 306 kts 231°
2026-05-05 16:45 25.24980 121.27249 10878 ft 306 kts 231°
2026-05-05 16:45 25.23595 121.25485 10546 ft 305 kts 231°
2026-05-05 16:45 25.22208 121.23720 10258 ft 301 kts 231°
2026-05-05 16:45 25.20868 121.22018 10238 ft 286 kts 231°
2026-05-05 16:46 25.19597 121.20402 10208 ft 273 kts 232°
2026-05-05 16:46 25.18366 121.18836 9998 ft 268 kts 232°
2026-05-05 16:46 25.17155 121.17294 9799 ft 266 kts 231°
2026-05-05 16:46 25.15937 121.15745 9565 ft 268 kts 231°
2026-05-05 16:47 25.14718 121.14196 9319 ft 267 kts 231°
2026-05-05 16:47 25.13508 121.12659 9073 ft 264 kts 231°
2026-05-05 16:47 25.12300 121.11125 8827 ft 264 kts 231°
2026-05-05 16:47 25.11095 121.09595 8584 ft 262 kts 230°
2026-05-05 16:48 25.09901 121.08078 8495 ft 260 kts 230°
2026-05-05 16:48 25.08709 121.06563 8401 ft 262 kts 231°
2026-05-05 16:48 25.07516 121.05050 8280 ft 260 kts 231°
2026-05-05 16:48 25.06319 121.03529 8074 ft 263 kts 230°
2026-05-05 16:49 25.05127 121.02016 8032 ft 260 kts 230°
2026-05-05 16:49 25.03939 121.00509 7894 ft 261 kts 230°
2026-05-05 16:49 25.02744 120.98993 7772 ft 261 kts 230°
2026-05-05 16:49 25.01554 120.97485 7691 ft 260 kts 230°
2026-05-05 16:50 25.00371 120.95985 7612 ft 258 kts 230°
2026-05-05 16:50 24.99205 120.94508 7504 ft 258 kts 230°
2026-05-05 16:50 24.98013 120.92998 7383 ft 256 kts 230°
2026-05-05 16:50 24.96845 120.91518 7072 ft 256 kts 230°
2026-05-05 16:51 24.95674 120.90037 6764 ft 256 kts 230°
2026-05-05 16:51 24.94505 120.88557 6457 ft 255 kts 229°
2026-05-05 16:51 24.93150 120.87328 6106 ft 257 kts 205°
2026-05-05 16:51 24.91398 120.86963 5812 ft 258 kts 175°
2026-05-05 16:52 24.89697 120.87598 5440 ft 264 kts 146°
2026-05-05 16:52 24.88468 120.89110 5171 ft 268 kts 117°
2026-05-05 16:52 24.88031 120.91107 4813 ft 275 kts 88°
2026-05-05 16:52 24.88380 120.93140 4614 ft 272 kts 75°
2026-05-05 16:53 24.88919 120.95134 4322 ft 273 kts 75°
2026-05-05 16:53 24.89444 120.97114 4157 ft 268 kts 75°
2026-05-05 16:53 24.89973 120.99102 3957 ft 263 kts 75°
2026-05-05 16:53 24.90480 121.00978 3983 ft 252 kts 75°
2026-05-05 16:54 24.90969 121.02766 3944 ft 242 kts 72°
2026-05-05 16:54 24.91834 121.04318 3847 ft 232 kts 49°
2026-05-05 16:54 24.92861 121.05617 3812 ft 219 kts 50°
2026-05-05 16:54 24.93842 121.06889 3679 ft 214 kts 50°
2026-05-05 16:55 24.94809 121.08125 3404 ft 214 kts 50°
2026-05-05 16:55 24.95773 121.09351 3117 ft 206 kts 50°
2026-05-05 16:55 24.96700 121.10524 2857 ft 202 kts 50°
2026-05-05 16:55 24.97617 121.11684 2600 ft 201 kts 50°
2026-05-05 16:56 24.98534 121.12842 2345 ft 199 kts 50°
2026-05-05 16:56 24.99425 121.13963 2122 ft 187 kts 50°
2026-05-05 16:56 25.00240 121.14992 1874 ft 171 kts 50°
2026-05-05 16:56 25.00986 121.15932 1624 ft 156 kts 50°
2026-05-05 16:57 25.01686 121.16818 1406 ft 152 kts 51°
2026-05-05 16:57 25.02367 121.17732 1246 ft 157 kts 52°
2026-05-05 16:57 25.03094 121.18664 1036 ft 161 kts 49°
2026-05-05 16:57 25.03855 121.19559 808 ft 159 kts 49°
2026-05-05 16:58 25.04580 121.20464 586 ft 157 kts 50°
2026-05-05 16:58 25.05311 121.21368 380 ft 155 kts 49°
2026-05-05 16:58 25.06016 121.22263 182 ft 157 kts 50°
2026-05-05 16:58 25.06714 121.23151 119 ft 133 kts 51°
2026-05-05 16:59 25.07184 121.23753 119 ft 74 kts 49°
2026-05-05 16:59 25.07488 121.24139 119 ft 67 kts 49°
2026-05-05 16:59 25.07739 121.24455 119 ft 42 kts 49°
2026-05-05 16:59 25.07832 121.24569 119 ft 16 kts 40°
2026-05-05 17:00 25.07925 121.24573 118 ft 11 kts 311°
2026-05-05 17:00 25.07974 121.24524 118 ft 8 kts 320°
2026-05-05 17:00 25.08021 121.24480 118 ft 8 kts 320°
2026-05-05 17:00 25.08068 121.24436 118 ft 8 kts 320°
2026-05-05 17:01 25.08115 121.24393 118 ft 8 kts 320°
2026-05-05 17:01 25.08161 121.24352 118 ft 8 kts 318°
2026-05-05 17:01 25.08204 121.24309 118 ft 8 kts 318°
2026-05-05 17:01 25.08258 121.24257 118 ft 12 kts 318°
2026-05-05 17:02 25.08330 121.24187 118 ft 13 kts 319°
2026-05-05 17:02 25.08403 121.24118 118 ft 13 kts 319°
2026-05-05 17:02 25.08474 121.24049 118 ft 13 kts 319°
2026-05-05 17:02 25.08543 121.23983 118 ft 13 kts 319°
2026-05-05 17:03 25.08612 121.23918 118 ft 12 kts 319°
2026-05-05 17:03 25.08677 121.23855 118 ft 12 kts 318°
2026-05-05 17:03 25.08742 121.23806 118 ft 8 kts 347°
2026-05-05 17:03 25.08782 121.23826 118 ft 6 kts 38°
2026-05-05 17:04 25.08827 121.23878 118 ft 13 kts 49°
2026-05-05 17:04 25.08903 121.23975 118 ft 19 kts 49°
2026-05-05 17:04 25.08990 121.24086 118 ft 19 kts 49°
2026-05-05 17:04 25.09077 121.24197 118 ft 18 kts 49°
2026-05-05 17:05 25.09153 121.24294 118 ft 11 kts 49°
2026-05-05 17:05 25.09163 121.24347 118 ft 6 kts 114°
2026-05-05 17:05 25.09140 121.24375 118 ft 6 kts 131°
2026-05-05 17:05 25.09103 121.24413 118 ft 7 kts 139°
2026-05-05 17:06 25.09097 121.24419 118 ft 0 kts 137°